This is the latest recevied weather packets stored in our database for station/object VK4TW-13. If no packets are shown the sender has not sent any weather packets the latest 10 day(s).
| Time | Temp. | Humidity | Pressure | Rain* | Wind** | Luminosity | Snow |
|---|---|---|---|---|---|---|---|
| 1777946031 | 28.89° C | 100% | 1014.5 hPa | 0 mm | - | - | - |
| 1777945428 | 28.33° C | 100% | 1014.4 hPa | 0 mm | - | - | - |
| 1777944829 | 27.78° C | 100% | 1014.7 hPa | 0 mm | - | - | - |
| 1777944227 | 27.78° C | 100% | 1014.8 hPa | 0 mm | - | - | - |
| 1777943625 | 28.33° C | 100% | 1014.8 hPa | 0 mm | - | - | - |
| 1777943025 | 28.33° C | 100% | 1014.9 hPa | 0 mm | - | - | - |
| 1777942828 | 28.33° C | 100% | 1014.9 hPa | 0 mm | - | - | - |
| 1777942425 | 28.89° C | 100% | 1015.1 hPa | 0 mm | - | - | - |
| 1777941824 | 28.33° C | 100% | 1015.1 hPa | 0 mm | - | - | - |
| 1777941634 | 28.33° C | 100% | 1015.2 hPa | 0 mm | - | - | - |
| 1777941235 | 28.33° C | 100% | 1015.2 hPa | 0 mm | - | - | - |
| 1777940977 | 27.78° C | 100% | 1015.2 hPa | 0 mm | - | - | - |
| 1777940396 | 27.22° C | 100% | 1015.5 hPa | 0 mm | - | - | - |
| 1777940196 | 27.22° C | 100% | 1015.7 hPa | 0 mm | - | - | - |
| 1777939737 | 27.22° C | 100% | 1015.7 hPa | 0 mm | - | - | - |
| 1777939452 | 27.22° C | 100% | 1015.8 hPa | 0 mm | - | - | - |
| 1777939271 | 27.22° C | 100% | 1015.8 hPa | 0 mm | - | - | - |
| 1777938971 | 27.22° C | 100% | 1016 hPa | 0 mm | - | - | - |
| 1777938447 | 26.67° C | 100% | 1015.8 hPa | 0 mm | - | - | - |
| 1777938076 | 26.67° C | 100% | 1015.9 hPa | 0 mm | - | - | - |
| 1777937896 | 26.67° C | 100% | 1016.1 hPa | 0 mm | - | - | - |
| 1777937648 | 26.11° C | 100% | 1016.2 hPa | 0 mm | - | - | - |
| 1777936846 | 25.56° C | 100% | 1016.4 hPa | 0 mm | - | - | - |
| 1777936664 | 25.56° C | 100% | 1016.4 hPa | 0 mm | - | - | - |
| 1777936184 | 25.56° C | 100% | 1016.3 hPa | 0 mm | - | - | - |
* Rain since midnight (hover to see other rain measurements)
** Current wind speed in m/s (hover to see current wind gust speed)